Theta_e
303 303 303 303 304 304 304 305 305 304 303 299 297 300 298 299 297 308 314 317 312 304 294 296 291 291 294 299 298 299 298 296 297 295 298 296 299 296 294 294 292 294 293 295 292 294 291 293 290 294 294 295 297 297 298 298 296 294 289 295 294 306 283 281 284 288 290 293 294 294 295 293 290 293 293 291 287 289 286 283 284 282 283 280 280 277 282
303 303 303 303 303 304 304 304 304 304 303 299 299 297 297 297 298 301 312 317 313 298 285 285 285 293 296 296 296 299 297 296 295 295 297 296 296 295 295 295 296 294 296 293 291 294 284 294 292 291 294 292 299 297 297 299 296 295 293 290 296 285 287 284 279 278 279 283 288 287 292 292 287 286 290 291 291 292 292 291 287 280 283 284 279 274 281
303 303 303 303 303 304 304 304 304 304 304 303 299 295 299 298 303 302 305 313 309 294 296 292 286 290 292 294 294 295 295 297 297 296 296 298 296 295 295 296 296 294 295 293 294 296 291 290 296 294 297 293 299 297 296 299 296 300 304 306 300 288 287 284 278 274 273 272 274 276 280 283 287 292 290 291 291 291 286 281 281 278 283 287 281 281 287
302 303 303 303 303 303 304 304 304 303 304 304 300 300 299 297 286 295 297 302 303 299 300 297 293 288 291 286 292 295 292 296 299 298 297 298 297 295 295 296 296 293 294 293 292 292 296 292 292 291 292 293 296 297 299 299 298 303 307 302 297 288 291 286 283 280 279 279 284 291 290 286 282 287 288 289 292 292 290 284 281 279 282 280 284 286 286
302 302 302 302 303 303 304 304 304 303 303 304 300 301 301 301 293 288 285 295 298 296 298 295 294 286 294 285 294 291 293 295 296 299 294 297 296 296 295 294 292 293 292 292 292 294 291 293 292 292 292 293 294 298 299 299 302 303 300 299 290 287 281 287 288 287 286 287 287 289 289 286 286 286 286 288 288 289 286 281 280 286 281 277 284 288 285
302 302 302 302 303 303 303 303 303 302 303 305 303 295 296 288 293 297 297 291 287 290 289 295 294 296 295 292 296 292 292 294 290 295 298 298 298 293 294 294 294 293 292 293 286 290 291 292 287 295 294 294 294 291 294 295 302 299 294 299 290 286 279 286 287 286 287 287 288 288 288 288 287 287 287 286 288 286 283 283 288 287 281 279 284 287 285
302 302 302 302 302 303 303 303 303 302 302 304 297 290 292 294 294 297 300 291 295 295 296 296 294 293 294 291 293 292 292 291 294 295 296 295 294 295 285 291 292 293 294 292 288 290 283 282 292 291 291 292 291 290 292 295 296 294 293 293 292 286 281 288 288 286 287 288 289 289 288 287 287 287 287 287 286 286 286 286 288 288 285 286 286 286 285
302 302 302 302 302 303 303 303 303 302 302 304 296 291 288 287 288 290 295 296 295 296 294 295 293 290 295 286 292 292 295 292 293 295 293 285 293 294 290 290 292 293 293 291 287 289 290 290 284 292 290 289 292 290 292 289 293 292 292 293 293 288 282 291 290 282 285 287 289 289 288 287 285 286 286 286 287 287 287 286 286 287 286 287 286 283 282
302 301 302 302 302 303 303 303 303 302 302 299 297 292 292 292 295 295 291 289 293 295 294 293 292 288 290 287 292 292 292 292 293 292 296 293 291 293 290 291 292 292 291 289 289 291 291 292 291 292 292 285 293 288 290 293 290 292 290 292 292 290 282 290 286 279 279 286 286 287 287 286 285 283 286 286 285 282 284 282 287 285 282 284 283 282 282
301 301 302 302 302 302 303 303 303 302 302 298 297 291 294 294 296 297 293 286 293 291 293 292 290 284 290 292 292 291 290 293 293 286 294 296 295 293 292 292 291 289 288 287 289 292 292 293 293 293 292 293 292 293 293 292 291 289 289 291 286 288 283 281 281 279 277 285 286 286 285 282 279 279 282 287 288 289 289 289 289 289 286 282 280 280 287
301 301 302 302 302 302 303 303 303 302 300 296 295 294 293 290 290 292 294 286 287 289 289 289 288 290 292 292 291 293 292 292 292 286 285 293 293 296 294 292 289 285 286 289 294 294 294 295 295 294 294 293 292 291 291 293 292 291 290 289 288 289 287 282 284 277 277 285 285 284 278 271 272 284 291 291 287 287 285 284 287 288 289 284 287 287 289
302 302 302 302 302 302 303 303 303 303 301 298 299 296 295 296 295 294 288 284 286 290 289 286 287 289 289 291 291 290 290 291 291 292 289 292 293 295 294 292 290 281 291 294 294 294 296 297 296 294 294 293 293 292 292 290 290 290 290 289 284 285 284 281 283 278 276 279 279 274 269 271 283 290 291 292 291 290 288 288 289 289 289 290 288 288 288
301 302 303 303 302 302 303 303 303 303 303 300 299 297 297 298 294 291 289 286 283 286 283 286 289 290 291 291 291 290 292 293 295 295 293 293 291 293 294 291 288 290 294 292 293 292 288 287 287 289 289 290 290 291 290 290 289 291 289 289 287 281 281 282 281 280 280 277 275 267 268 282 288 289 290 292 291 289 286 284 288 289 288 289 286 287 288
302 302 302 303 302 302 302 303 303 303 303 302 297 299 300 298 293 291 289 285 285 288 287 286 287 288 290 290 290 290 292 292 292 295 292 295 292 292 293 293 292 294 293 293 290 289 284 284 279 282 283 286 286 284 289 290 290 290 290 290 290 288 285 282 279 280 273 273 273 274 281 282 283 282 285 286 282 284 282 278 281 287 288 288 286 287 288
302 302 303 303 302 302 302 302 303 303 303 302 299 300 300 298 297 293 294 291 284 286 287 280 285 288 290 289 289 287 287 289 288 288 293 298 295 295 293 293 294 293 294 291 286 288 283 282 278 278 279 279 275 278 288 285 290 292 291 290 290 289 283 281 279 278 280 275 274 273 272 269 276 286 291 292 292 291 289 282 279 288 288 289 288 286 287
302 302 302 302 302 302 302 302 302 302 302 302 299 298 300 300 299 297 294 290 288 281 283 289 291 289 287 287 289 287 283 282 284 286 288 291 291 293 293 294 295 294 293 291 289 285 282 280 278 277 275 278 283 281 279 285 284 289 290 291 292 291 291 287 283 280 280 279 273 271 269 271 280 284 288 290 290 290 290 282 277 286 287 289 288 287 287
302 302 302 302 302 302 302 302 302 302 302 302 297 297 298 301 298 296 293 292 290 282 290 291 292 290 286 285 288 286 287 281 285 281 282 284 288 290 292 294 294 295 293 287 285 283 281 280 282 280 281 285 280 279 284 283 281 283 288 289 288 286 284 284 281 280 280 278 276 274 278 276 283 287 288 289 290 290 281 273 275 285 287 288 288 287 287
301 302 302 302 302 302 302 302 302 302 302 303 298 296 298 301 300 299 296 293 286 284 289 291 289 285 284 286 286 290 291 289 288 290 285 288 288 288 289 291 287 292 294 283 284 280 279 280 277 279 277 286 286 286 274 282 279 280 280 282 280 280 281 281 278 278 279 279 274 275 276 283 287 287 289 289 291 285 274 271 279 286 287 289 288 287 287
301 301 302 302 302 302 302 302 302 302 302 302 299 298 298 302 301 300 295 293 289 282 289 293 293 291 292 294 291 290 291 290 288 282 282 283 286 290 291 292 291 281 289 282 284 279 279 280 284 281 278 281 285 277 282 279 278 283 283 279 280 280 280 281 280 276 275 276 274 274 277 282 287 289 290 290 285 275 274 282 287 287 287 288 288 287 287
301 301 302 302 302 301 301 302 302 302 303 302 300 294 297 302 302 300 294 290 290 287 288 290 292 289 292 290 286 285 287 288 288 284 282 280 289 290 286 282 287 288 284 284 279 281 278 278 280 283 278 278 281 284 278 280 285 282 282 284 279 281 279 277 278 280 277 276 272 272 270 281 289 289 287 289 280 282 286 288 289 290 287 286 286 287 288
301 301 301 302 302 302 302 301 302 302 303 303 301 295 297 300 300 299 299 295 290 284 285 294 294 291 292 291 292 291 290 286 286 284 286 286 289 286 277 278 282 283 279 280 276 279 280 279 279 279 283 281 283 283 276 277 280 286 286 283 281 284 278 278 280 281 273 273 273 274 280 284 291 288 281 284 286 288 290 290 286 288 288 287 286 286 287
301 301 301 302 302 301 301 301 302 302 303 303 301 297 294 299 301 300 300 297 290 285 289 293 295 293 295 295 294 294 293 292 294 293 287 284 289 287 287 288 286 285 286 286 281 280 283 280 282 279 275 278 283 277 279 274 273 283 287 285 275 285 281 281 276 281 277 276 279 285 287 288 289 289 288 288 290 290 289 288 287 286 286 287 285 286 286
300 300 301 301 301 301 301 301 302 302 303 303 300 294 293 298 298 299 298 293 295 295 296 294 296 296 297 295 295 297 296 296 296 295 293 288 283 286 286 285 284 290 289 288 282 281 281 281 277 281 277 279 277 275 278 278 277 280 278 285 283 286 285 284 281 280 285 285 285 287 286 287 287 289 290 288 288 290 289 288 285 286 286 287 286 287 287
300 300 301 301 301 301 302 302 302 303 303 303 302 295 295 297 297 296 295 294 288 285 287 291 286 282 287 290 292 295 294 295 296 297 297 293 282 282 287 289 291 290 286 288 287 285 282 282 281 282 276 280 282 275 274 273 277 280 280 280 284 283 283 281 276 281 277 271 282 283 283 284 285 286 288 289 289 289 289 287 286 286 287 287 288 287 288
299 300 300 301 301 301 302 302 302 303 303 303 301 300 300 298 297 296 292 284 284 284 282 284 284 291 293 295 294 293 293 295 297 297 295 296 291 285 284 289 292 288 286 288 289 286 283 279 280 279 275 282 282 275 281 277 277 282 275 278 281 280 285 279 281 279 275 275 281 283 284 284 285 285 285 285 287 288 288 287 288 288 288 288 288 289 289
299 299 300 300 301 301 302 302 302 302 303 303 302 296 295 296 298 298 295 293 292 287 283 282 286 296 294 293 291 294 296 294 294 295 296 297 294 293 290 293 293 296 292 292 290 284 282 281 280 280 278 279 285 278 278 281 280 283 279 276 283 283 284 276 280 277 279 282 283 284 284 284 285 286 287 287 287 287 287 288 288 289 288 288 288 288 288
299 299 300 300 300 301 302 302 302 302 302 303 300 298 298 299 299 296 292 292 286 283 283 281 287 292 294 292 293 295 295 293 294 292 294 294 295 294 294 292 290 289 290 287 288 285 283 282 281 279 282 282 285 282 282 280 281 278 277 281 284 281 276 281 279 274 273 275 279 282 276 275 282 285 287 287 288 287 287 287 288 288 287 287 286 287 288
299 299 299 300 300 301 302 302 302 302 302 303 301 299 300 299 298 298 297 296 291 282 282 282 284 288 293 293 295 293 294 293 293 294 291 292 293 294 291 290 289 288 287 284 281 282 282 279 279 282 281 282 279 278 283 282 283 280 280 281 284 280 281 279 275 274 274 280 284 284 283 283 284 286 287 288 289 288 287 287 287 287 287 287 287 287 287
299 299 300 300 300 301 301 302 303 302 302 301 299 298 299 301 299 299 298 299 296 291 286 286 289 288 282 287 294 291 293 293 292 293 293 294 294 293 290 290 288 289 289 285 284 283 282 282 284 281 281 285 281 277 279 274 276 275 280 285 285 286 287 285 283 283 283 285 285 286 284 282 285 287 287 288 289 288 287 288 288 288 288 288 288 287 287
300 300 300 300 301 301 301 302 303 302 302 298 297 295 291 291 297 296 297 299 296 295 285 282 280 282 292 294 292 292 291 292 293 294 291 290 290 288 289 289 289 290 287 282 282 280 281 282 281 286 288 289 280 279 275 276 275 278 284 285 285 286 286 287 287 284 282 286 287 287 286 286 287 287 288 289 290 290 287 288 288 288 289 289 288 288 288
300 301 301 301 301 301 301 302 302 302 301 297 294 286 284 282 291 299 299 298 298 294 287 285 282 285 284 292 291 290 290 291 290 289 292 290 289 289 291 289 288 289 284 284 283 281 282 279 280 283 288 288 284 278 275 275 273 277 282 284 283 284 285 286 287 288 287 286 287 288 287 287 287 287 286 287 288 289 288 288 289 291 290 289 289 289 289
300 301 301 301 301 301 301 302 303 302 297 295 289 288 289 290 294 298 298 299 298 293 286 282 280 281 280 285 292 292 291 294 294 292 290 292 290 290 289 290 284 290 286 281 281 280 280 280 280 281 282 287 285 278 278 276 274 275 284 284 285 285 287 287 286 287 288 288 287 284 283 285 286 285 285 288 289 289 288 288 288 288 289 289 289 288 288
300 301 301 301 301 301 302 302 302 302 296 298 301 300 299 299 300 299 299 298 295 288 291 283 279 280 279 284 291 293 295 291 290 289 286 290 288 287 284 289 288 289 293 284 279 279 283 281 282 280 283 286 280 279 275 273 278 283 284 285 284 286 286 287 287 287 287 287 286 282 280 284 287 288 288 288 288 287 287 286 287 287 287 287 286 286 286
301 301 301 301 301 302 302 302 303 301 300 296 293 295 299 300 299 300 300 297 293 292 289 282 278 278 279 288 283 288 293 285 284 288 281 289 290 287 283 285 286 281 284 280 282 281 282 281 280 281 284 281 281 279 274 277 284 284 284 283 285 285 286 285 286 285 286 286 287 287 287 288 289 289 289 288 287 288 288 288 287 286 286 286 285 285 285
301 301 301 302 302 302 302 302 298 296 293 296 298 298 299 299 299 300 298 296 285 284 283 283 283 279 279 281 281 284 293 287 283 287 282 286 290 285 285 280 282 279 280 288 281 281 279 280 283 279 277 281 278 275 277 280 283 283 283 283 285 285 284 283 283 284 285 286 287 287 288 287 286 286 286 287 287 287 287 287 287 286 284 284 284 284 284
301 301 301 302 302 301 299 300 297 295 294 294 294 302 301 300 300 300 299 300 294 284 282 282 282 279 280 276 276 281 292 285 288 287 286 284 285 290 287 282 276 281 286 281 278 281 279 285 280 275 279 276 274 276 278 281 281 282 283 283 284 285 284 284 284 285 286 287 288 288 287 286 285 285 287 287 287 286 285 285 285 286 284 284 284 284 284
301 301 302 301 301 299 295 292 299 299 295 296 298 302 303 301 300 300 298 296 297 296 286 281 280 281 282 279 282 283 287 279 285 282 283 282 281 282 283 280 277 280 280 279 279 277 280 286 280 275 275 274 276 283 284 283 283 282 283 284 285 286 285 286 287 286 285 285 287 286 286 286 286 287 286 286 286 286 284 284 285 284 284 283 284 283 284
301 302 299 297 296 288 288 291 296 299 301 300 301 296 296 295 286 287 289 287 291 293 286 286 280 282 286 283 279 287 285 281 284 280 281 283 279 279 282 279 279 280 273 276 279 285 282 280 277 274 275 279 283 283 283 284 285 283 284 285 285 286 286 287 286 286 285 284 283 283 284 285 286 286 285 285 286 284 284 285 286 286 286 285 284 285 284
300 298 298 298 293 286 287 293 302 301 296 298 297 289 285 288 284 282 282 284 284 282 285 283 281 284 284 282 282 288 285 280 279 281 278 284 279 277 280 274 279 278 275 275 276 285 274 276 276 276 273 278 279 282 286 285 285 286 285 285 286 286 287 286 287 285 285 285 286 285 284 284 284 285 286 286 286 286 286 286 286 286 286 286 285 285 284
297 292 287 287 286 289 296 302 303 299 297 289 289 285 281 284 281 279 285 280 281 283 284 280 285 285 286 282 280 281 289 284 278 277 278 281 286 277 280 278 279 276 271 271 275 283 275 271 274 273 272 277 278 283 284 284 284 284 285 286 287 287 287 287 287 288 288 288 289 289 288 287 287 287 286 286 285 283 284 284 286 286 286 285 285 284 283
293 292 290 285 291 294 296 298 298 296 289 284 283 283 281 279 282 283 282 279 279 280 285 284 285 284 286 286 284 280 290 289 287 286 282 277 284 282 278 273 281 274 272 271 279 279 277 274 273 272 272 278 281 283 284 283 284 284 286 287 287 287 287 288 289 289 288 288 289 288 287 288 288 287 286 285 285 283 283 283 285 286 286 285 284 284 284
293 292 292 296 296 296 296 293 290 286 286 286 280 277 280 280 282 282 281 276 278 282 284 284 280 282 282 285 284 285 283 290 285 282 280 276 282 278 275 278 279 272 269 276 279 277 276 270 270 271 276 281 283 283 283 283 284 284 286 287 286 287 287 287 287 288 289 289 288 288 288 287 286 286 286 286 286 285 285 285 286 286 285 285 286 286 285
299 299 298 295 292 288 289 284 286 285 278 278 276 275 279 276 278 277 279 283 285 283 283 290 287 289 289 289 285 288 284 288 283 281 280 277 283 280 277 275 274 269 273 280 278 274 271 270 269 272 280 281 283 282 283 283 283 283 286 287 287 287 287 286 287 288 289 288 288 288 288 286 285 286 287 286 286 286 286 286 286 286 286 285 285 285 285
297 297 292 289 285 286 286 276 285 282 279 279 276 272 275 275 278 280 278 280 283 282 285 282 284 283 280 285 283 283 282 284 285 282 281 282 279 276 275 272 271 278 281 276 274 270 270 274 274 275 281 282 284 282 282 282 281 283 285 287 287 286 286 287 288 287 288 288 288 288 288 287 287 286 286 286 285 284 284 286 286 286 286 285 284 284 285
289 286 286 284 282 284 281 272 283 280 275 277 280 277 278 275 279 281 281 284 286 284 287 287 286 285 282 287 286 286 283 280 284 278 276 280 275 277 274 272 278 278 274 270 272 272 273 271 276 279 282 280 281 280 281 280 283 284 286 287 286 287 286 286 287 287 287 286 285 286 285 285 285 283 283 283 284 285 283 283 284 285 284 284 283 283 284
285 283 282 277 272 279 280 277 278 277 281 282 280 281 280 282 282 283 288 289 287 286 285 285 285 284 281 284 281 280 283 283 279 279 281 281 276 272 278 281 279 272 272 272 269 268 269 274 277 279 279 280 279 279 279 283 285 287 286 286 286 286 286 287 286 287 286 285 285 285 284 285 285 284 283 284 284 284 284 284 286 286 285 283 283 283 284
285 286 284 282 277 281 283 277 278 281 283 283 285 286 285 286 289 288 291 289 286 287 287 287 285 285 280 281 281 282 283 283 279 281 281 275 274 277 282 275 270 271 268 266 266 268 272 274 278 279 278 279 279 280 281 283 284 284 283 287 287 287 287 286 286 286 286 286 285 286 286 286 286 286 284 283 284 285 284 285 285 285 284 283 284 284 284
281 285 283 275 274 280 278 280 284 285 286 286 287 287 288 289 286 286 289 289 288 288 286 285 282 283 283 285 284 279 281 282 279 279 280 278 280 277 275 273 271 272 272 269 269 273 275 278 281 282 281 282 280 281 283 283 284 285 284 286 287 287 287 287 286 286 286 286 285 285 286 286 286 285 284 284 283 284 285 285 284 285 285 285 284 283 284
286 283 280 279 281 281 281 283 283 281 284 286 287 286 286 286 285 287 289 290 287 286 287 284 283 281 279 283 281 280 278 282 276 275 281 278 273 270 270 267 268 267 272 274 274 276 279 282 283 283 282 282 281 283 282 283 284 284 285 285 286 287 288 288 288 287 287 286 287 286 286 286 286 286 285 285 284 284 285 285 285 284 285 285 284 284 283
284 282 284 282 281 282 283 284 282 281 283 283 284 284 285 284 285 287 290 289 288 287 285 285 285 281 280 280 276 278 277 280 279 280 277 275 275 275 274 270 270 269 271 276 278 282 283 284 284 282 281 281 282 283 283 284 283 284 285 286 286 287 288 289 288 288 287 287 286 286 287 286 285 285 286 285 285 285 285 285 285 284 283 285 285 283 283
288 284 283 285 282 281 282 278 278 279 281 282 283 284 284 285 286 286 291 290 289 285 283 281 282 281 279 279 277 274 276 282 278 275 273 273 277 275 274 272 272 275 277 281 281 282 283 284 284 283 283 283 284 284 284 285 284 285 286 286 286 287 287 288 288 288 288 288 288 287 287 287 287 287 287 286 285 285 283 283 284 284 284 283 285 284 283
284 281 281 284 286 285 284 284 284 284 284 285 285 286 286 285 287 289 291 288 286 281 280 283 282 280 278 275 277 280 282 278 275 275 273 275 278 273 273 275 277 280 282 282 283 283 283 283 282 284 283 283 283 283 284 285 286 285 284 285 287 287 287 287 288 288 289 289 289 289 288 288 289 288 287 285 285 284 282 281 283 284 284 284 283 284 284
Wind_Speed
27 29 29 30 30 30 30 30 28 24 24 12 9 5 3 2 5 11 8 1 9 3 1 2 3 4 5 8 12 13 12 10 8 7 2 5 3 4 3 3 4 4 3 2 4 2 1 1 3 0 4 8 6 4 7 8 8 5 3 6 4 5 2 2 3 3 5 9 10 11 10 9 6 1 1 1 3 1 1 2 4 2 1 1 0 1 1
29 29 30 30 30 30 31 31 31 25 19 7 7 3 2 4 4 6 4 1 1 4 3 3 4 4 6 9 10 9 9 7 9 5 4 3 4 6 4 6 2 3 2 3 3 5 2 1 4 1 5 4 7 5 7 10 5 5 1 2 2 1 2 3 1 3 5 7 6 7 9 6 3 2 2 3 3 4 3 3 2 1 1 2 3 1 1
28 28 30 30 30 31 31 31 32 31 23 7 3 1 3 4 3 5 4 1 2 4 3 5 4 5 6 4 3 5 5 5 7 6 6 4 5 5 5 7 5 4 4 5 7 0 6 2 2 3 1 5 7 10 7 12 6 4 4 8 2 2 1 2 1 1 1 1 2 3 5 6 4 3 6 4 2 4 6 2 4 2 3 3 1 1 1
29 28 29 29 30 31 31 31 32 32 28 21 0 2 3 2 3 4 5 5 1 3 3 3 3 3 4 4 4 5 5 6 8 8 7 2 6 6 7 5 5 6 6 5 4 9 3 1 2 2 2 2 4 6 12 10 6 5 8 7 4 0 0 2 2 3 4 5 3 1 6 4 4 6 7 4 2 3 3 3 1 2 2 1 2 6 3
30 29 29 29 29 30 31 31 32 34 31 31 3 3 2 3 2 4 7 7 2 3 2 5 4 4 1 1 2 3 4 4 5 6 2 7 10 11 5 6 5 3 6 3 3 3 8 9 8 9 12 7 6 8 12 10 8 7 4 5 2 1 1 1 2 2 3 4 9 8 6 5 5 5 5 7 6 4 5 2 3 1 5 4 1 4 3
30 29 29 29 29 30 30 30 32 34 33 30 7 4 6 3 2 2 2 3 4 9 4 7 7 8 4 1 3 6 7 6 2 5 2 6 8 4 8 8 6 11 6 3 2 4 3 7 4 8 7 6 6 2 5 4 5 7 2 3 3 2 1 2 1 4 4 6 7 8 9 8 6 5 5 6 6 5 3 3 5 3 3 7 2 1 2
29 29 28 28 29 29 29 30 30 33 33 24 7 7 4 2 3 2 8 5 7 6 7 7 6 6 7 1 5 4 7 6 6 2 4 7 5 11 3 10 15 15 15 12 4 8 3 4 3 4 5 4 3 3 4 3 6 4 0 0 1 2 1 1 2 4 3 5 6 7 7 4 5 5 5 4 5 5 5 4 3 1 1 3 3 2 1
29 29 27 27 28 28 29 29 30 31 32 16 9 11 6 6 6 7 9 4 6 8 7 5 6 5 12 5 6 7 0 3 4 6 5 1 3 8 9 13 13 12 15 13 8 7 5 3 2 5 5 6 4 2 1 0 1 2 1 1 3 4 1 3 2 3 3 6 8 8 7 7 7 7 7 6 4 6 3 3 7 6 2 3 7 5 2
28 28 27 27 27 28 28 28 29 30 26 9 9 6 7 3 3 3 6 9 6 9 7 5 7 6 8 6 7 8 12 5 7 9 13 10 7 3 7 11 9 13 14 12 9 9 8 6 5 4 4 3 4 3 2 5 3 4 3 2 2 2 1 1 1 2 2 2 3 5 6 7 5 5 3 4 4 4 3 3 0 4 3 6 10 11 6
28 28 28 27 27 27 27 27 28 27 21 7 5 9 9 5 3 4 3 2 6 5 6 8 6 6 4 5 6 6 14 14 10 4 9 14 15 12 12 9 8 9 10 10 9 11 11 9 9 5 4 4 5 5 5 5 3 1 3 1 2 1 1 0 1 0 2 3 3 7 8 9 8 4 3 4 1 2 1 2 7 5 4 8 4 1 1
26 28 27 27 26 27 27 27 26 26 15 11 6 5 9 8 7 8 4 3 7 5 7 11 8 6 7 11 11 12 9 12 12 6 3 10 11 12 8 8 5 2 6 5 7 8 10 10 9 4 4 5 5 5 5 7 4 3 1 1 0 1 1 1 2 2 1 1 3 5 6 3 4 1 7 5 2 2 4 2 5 5 7 1 2 3 4
24 26 26 27 26 26 26 26 26 25 19 9 4 3 5 7 5 3 3 6 6 10 9 8 9 8 13 12 8 9 9 7 6 7 5 6 9 10 5 5 5 3 4 4 7 9 11 8 7 5 7 8 8 8 8 7 6 4 2 3 3 4 2 1 1 0 0 2 5 4 3 6 0 7 8 9 9 10 4 4 8 6 5 5 7 8 8
26 25 25 26 27 26 26 25 26 25 23 12 7 5 6 7 3 4 3 2 5 9 7 9 12 13 14 13 8 7 9 8 3 6 5 5 5 5 5 5 5 3 4 7 10 9 7 5 7 6 7 8 7 7 9 10 8 8 5 3 2 3 3 1 0 3 1 1 1 1 4 2 2 6 10 6 6 8 7 6 12 15 12 7 9 5 4
23 24 25 25 27 26 25 25 25 25 26 18 8 7 6 9 6 5 4 3 5 5 6 6 13 12 12 11 12 8 11 9 7 4 3 3 3 4 5 5 4 1 4 4 4 4 3 1 2 3 4 3 3 3 4 6 7 9 12 10 6 3 1 3 2 2 3 3 4 7 2 5 8 6 6 4 3 3 2 2 5 10 7 6 5 6 7
24 24 25 26 27 26 26 25 24 24 25 22 7 7 6 7 5 2 3 1 2 3 8 6 7 9 9 9 13 7 7 8 10 7 6 1 1 3 6 8 4 3 3 2 2 1 1 0 2 1 2 0 0 2 2 3 3 8 8 10 9 7 6 3 5 2 5 3 1 2 1 2 0 0 2 3 3 3 2 2 2 9 12 9 7 9 9
24 25 26 26 28 26 26 25 23 23 23 23 9 7 5 6 4 2 2 1 1 3 6 6 6 6 6 6 9 7 5 3 6 6 6 7 9 8 6 4 2 2 2 3 1 2 1 2 2 1 1 1 3 2 1 1 2 3 7 4 1 3 4 8 9 2 3 2 2 2 2 2 0 5 5 7 6 6 3 2 2 6 8 9 7 8 7
23 24 25 26 26 26 25 25 24 23 21 21 9 7 3 8 6 6 4 3 2 4 6 10 6 5 4 7 8 7 7 4 5 4 5 5 7 11 10 9 3 2 2 3 2 1 1 0 1 1 2 3 3 2 3 3 3 5 6 8 8 8 7 6 4 1 2 2 3 3 0 2 6 6 7 7 7 5 5 1 1 6 9 6 9 7 7
23 23 24 25 25 25 25 24 24 23 22 22 11 5 5 5 7 7 3 4 3 4 6 8 8 6 6 5 4 5 4 5 5 2 2 4 8 10 11 6 6 5 7 4 1 2 2 1 1 0 2 4 3 2 2 5 3 4 4 4 3 4 3 5 1 1 1 4 2 2 1 1 4 7 10 8 6 3 1 2 2 6 6 6 8 6 5
22 23 23 24 25 25 24 24 24 23 21 21 12 8 3 6 6 7 3 4 4 4 6 7 6 7 6 7 5 6 5 6 6 3 4 5 3 10 12 4 5 4 8 5 5 2 3 2 3 2 2 4 5 1 2 2 3 3 3 5 4 3 2 2 4 3 2 1 2 1 2 2 3 7 6 6 4 2 2 1 4 4 4 5 6 6 6
23 23 23 23 23 25 24 23 23 22 21 20 11 2 8 8 4 7 7 5 3 2 4 5 6 9 6 7 7 7 6 7 5 4 4 3 7 11 7 6 8 5 7 5 6 3 2 3 3 2 3 3 1 1 2 1 3 4 1 2 2 2 2 2 2 1 2 1 1 2 2 1 4 6 4 5 4 0 1 3 3 3 4 6 5 5 5
21 22 22 23 24 24 23 23 23 22 21 20 14 5 6 5 7 5 3 2 2 2 2 4 5 7 4 5 3 6 7 7 6 5 5 4 6 4 2 2 5 4 3 3 3 4 4 6 5 2 2 2 4 2 4 2 2 5 6 3 3 8 2 1 3 2 2 2 2 1 3 4 2 2 2 2 2 2 2 2 4 8 9 8 6 8 6
21 22 23 23 24 25 23 23 22 21 21 20 16 5 3 6 7 7 8 2 1 1 1 5 2 3 1 2 3 4 5 6 4 2 2 5 5 5 2 5 6 3 2 2 2 2 4 2 3 3 4 3 3 3 4 5 2 0 1 1 2 6 1 0 2 1 2 1 1 5 5 2 5 3 2 1 2 4 10 8 6 6 7 6 6 7 6
22 22 22 23 24 24 23 22 21 21 20 19 12 3 3 7 9 10 9 3 1 3 2 2 1 1 3 4 3 6 4 3 5 4 3 1 3 4 7 6 4 3 1 3 3 0 3 3 2 2 2 2 4 4 5 1 1 5 4 4 5 2 3 4 3 2 2 1 3 5 4 3 4 3 4 6 6 11 9 8 6 5 4 4 5 6 8
21 22 22 23 23 24 23 21 21 20 19 18 10 3 5 6 5 8 8 3 4 6 5 4 4 2 2 3 3 3 0 1 5 3 4 2 2 4 2 2 1 2 2 4 2 3 3 1 3 1 0 3 5 2 4 3 5 5 4 3 2 3 4 3 1 1 3 2 9 11 8 6 5 6 9 10 9 6 5 4 4 3 4 5 4 5 5
21 21 22 22 23 23 22 21 20 20 18 18 13 4 4 3 3 6 5 4 5 3 0 1 2 2 2 3 3 5 4 3 3 3 4 0 5 2 1 1 0 1 2 4 3 5 2 2 3 2 2 2 4 2 3 3 4 5 4 3 3 2 3 4 6 5 4 1 4 7 4 4 4 8 8 8 8 8 6 3 2 2 3 3 4 5 6
20 20 21 22 21 21 21 20 20 19 18 18 11 4 3 4 3 4 2 2 2 1 0 0 2 3 1 3 4 1 3 2 4 7 4 1 6 4 2 1 1 1 1 1 2 2 2 1 1 1 3 1 3 1 1 2 4 2 2 4 0 1 3 1 1 1 4 3 7 9 6 6 9 10 7 6 6 6 6 5 7 6 6 5 5 4 4
18 19 20 20 20 20 20 20 19 18 18 17 8 5 4 4 4 6 5 5 4 1 3 3 3 4 8 3 2 4 5 4 3 3 2 8 2 5 1 0 1 2 2 3 1 0 0 1 1 1 1 1 1 1 1 2 2 2 2 3 3 6 5 1 4 5 3 4 5 7 5 6 8 6 8 8 7 6 6 5 5 5 5 5 5 5 5
17 17 18 19 19 20 20 20 18 17 16 17 9 7 5 3 4 5 4 5 4 1 3 3 4 4 5 6 1 3 6 2 3 1 4 3 5 1 3 4 3 1 1 1 1 2 1 2 3 0 0 2 2 3 3 3 1 2 0 4 5 5 4 5 4 1 2 4 5 4 2 2 3 5 6 7 4 5 6 5 5 5 4 4 5 6 7
16 17 17 18 19 19 20 19 19 16 17 12 6 6 6 1 3 4 5 4 3 3 3 3 4 3 1 2 5 4 3 4 4 1 2 2 2 1 1 4 4 1 1 2 1 1 1 3 0 0 1 2 1 2 3 2 1 1 1 1 4 4 6 7 3 1 1 3 4 4 3 3 4 5 4 5 4 4 5 5 5 5 6 6 6 5 6
19 19 19 18 18 19 19 18 18 17 15 6 2 2 0 1 3 4 5 4 3 2 1 3 2 2 2 1 2 6 4 3 4 2 5 3 1 1 5 2 0 3 1 1 1 1 0 1 1 0 1 2 1 0 0 1 1 2 1 5 6 4 4 6 4 2 1 2 2 2 4 4 3 4 4 3 4 4 4 5 6 7 7 6 6 6 4
20 20 20 19 18 18 18 17 16 16 12 6 3 1 1 1 1 4 6 5 4 2 0 1 5 3 3 1 2 0 2 1 2 4 1 1 4 4 1 3 2 0 1 1 1 2 0 1 2 0 1 2 1 1 1 1 3 1 2 4 4 4 4 3 3 2 2 3 4 4 4 4 4 4 4 5 6 6 5 5 5 7 9 8 7 7 7
20 20 19 19 18 17 17 16 15 11 6 3 2 1 0 1 3 6 7 4 3 1 0 2 3 0 1 0 2 4 3 1 2 1 0 1 1 2 2 1 2 2 0 1 1 0 1 1 1 3 2 2 2 0 0 1 3 1 1 2 3 4 3 3 3 2 2 4 4 3 2 3 3 4 4 5 4 4 5 5 4 5 6 5 6 8 10
20 20 20 18 18 18 17 16 15 9 4 5 7 7 8 8 8 7 5 4 1 1 1 1 2 1 1 2 0 3 2 2 2 1 0 1 2 1 0 3 3 1 2 2 0 1 1 0 1 2 2 4 2 1 1 3 3 3 4 5 4 5 4 3 3 4 4 4 2 1 3 3 3 3 3 3 3 4 4 4 4 4 5 8 10 10 10
21 21 20 18 17 17 17 17 15 11 7 1 2 2 4 6 4 6 4 1 1 2 1 1 1 1 3 0 2 3 3 2 2 1 1 2 2 1 0 1 0 0 0 1 1 0 1 0 3 3 2 1 1 1 1 2 3 6 6 4 4 4 4 4 3 3 3 3 3 2 2 3 2 1 3 4 4 5 4 4 6 7 7 8 8 9 9
21 21 20 19 16 16 18 14 4 1 2 4 2 1 2 4 4 4 2 1 1 0 0 1 1 2 3 2 2 2 2 1 1 1 1 2 3 1 1 1 0 1 1 1 1 2 2 2 1 1 3 2 2 1 0 3 5 4 5 4 4 4 3 3 2 3 3 3 3 3 5 4 4 4 3 4 4 5 6 7 7 7 7 7 8 8 8
21 21 20 19 20 13 5 3 2 1 1 0 2 4 5 4 4 3 4 2 1 0 0 1 2 2 1 2 2 1 2 2 0 1 3 1 2 2 0 1 2 1 1 3 1 1 1 0 1 2 1 1 3 2 3 2 4 4 4 4 4 3 1 1 2 2 3 4 4 4 5 5 4 3 3 4 5 6 5 4 5 6 7 6 6 6 6
22 21 21 17 7 1 1 2 2 1 2 4 6 9 9 2 2 1 1 1 2 2 1 1 2 2 2 2 0 0 2 2 2 3 3 2 1 1 0 1 1 1 0 1 2 3 3 2 2 1 0 3 1 3 5 5 6 4 3 2 2 1 1 2 1 3 4 5 5 4 4 4 3 3 2 4 5 5 4 5 6 7 7 7 6 5 6
23 22 6 2 1 1 0 0 0 3 4 8 7 4 0 1 0 1 1 1 2 3 2 1 3 3 1 1 2 1 1 2 3 2 1 0 2 3 1 1 1 1 1 1 2 1 0 1 2 3 4 3 6 4 5 5 6 4 4 2 0 1 0 1 2 3 2 3 2 3 3 3 3 2 2 5 5 4 3 3 4 4 3 4 4 4 6
15 4 1 2 1 1 1 2 2 3 2 4 1 0 1 1 0 1 2 2 1 1 3 3 3 4 2 1 1 1 2 1 3 1 2 1 2 3 1 2 1 1 1 1 2 2 1 1 1 1 3 2 4 4 5 6 5 5 4 1 1 1 3 2 2 2 0 1 0 3 3 2 3 1 2 4 3 3 3 3 2 3 3 2 3 3 5
4 5 3 3 2 2 6 4 3 3 1 1 1 1 1 1 1 2 1 1 1 1 2 3 3 2 1 1 1 1 1 0 0 2 1 4 1 1 0 1 1 1 1 1 1 1 1 1 1 1 2 1 3 3 5 5 5 4 4 1 3 3 3 1 1 0 1 3 5 3 2 3 3 0 2 3 2 2 1 1 1 1 0 1 2 2 3
5 4 4 3 4 4 4 7 6 2 1 1 0 1 0 1 1 1 1 1 1 1 2 1 2 0 2 1 2 2 1 1 0 0 0 2 0 0 1 0 0 1 0 1 0 1 0 1 1 2 2 5 5 5 6 5 5 4 2 1 2 1 1 1 2 2 3 3 4 3 2 0 3 3 3 2 3 3 2 2 1 1 2 2 3 3 4
3 3 4 6 7 7 6 2 1 1 1 0 0 1 1 2 0 1 1 1 2 0 1 1 0 1 1 2 1 1 0 1 0 0 0 1 1 1 1 1 0 1 1 1 1 2 0 2 1 3 4 5 6 4 7 5 4 2 1 1 3 3 1 2 1 3 1 3 2 2 3 4 3 2 1 1 1 3 4 3 3 2 2 3 4 5 5
15 11 6 3 2 2 2 1 2 1 0 0 1 1 1 1 2 2 1 1 0 0 1 1 1 1 2 2 1 1 1 1 0 0 0 1 0 0 1 1 0 2 2 1 1 1 1 2 2 3 6 5 5 5 5 5 4 3 3 5 4 2 0 2 2 3 3 3 3 3 3 2 3 1 2 4 4 3 3 3 4 3 3 3 5 4 5
6 3 2 1 1 3 0 1 0 1 1 1 1 2 2 2 2 1 1 1 1 1 1 2 2 3 2 0 1 0 1 2 2 0 1 0 1 1 0 1 1 2 0 2 1 3 3 1 4 3 8 5 6 5 5 5 5 4 3 5 4 4 4 1 1 3 2 1 3 2 1 1 1 2 2 2 4 1 3 4 5 5 4 2 2 3 5
3 1 1 1 1 1 2 2 1 1 2 1 2 2 2 3 3 1 3 2 1 2 1 2 2 3 1 1 1 1 1 0 1 1 1 0 1 0 0 2 1 0 1 2 1 2 1 3 3 2 6 4 5 5 5 5 6 5 7 6 4 5 3 2 2 3 4 4 3 1 1 1 3 3 4 4 4 1 2 2 2 1 2 2 3 3 4
1 1 2 1 3 2 1 1 0 1 1 2 3 3 4 6 4 2 1 2 1 3 5 4 5 5 3 1 1 1 0 1 0 2 1 2 1 2 2 1 0 1 1 1 2 4 4 5 1 4 4 5 5 5 5 5 5 6 7 7 6 6 5 4 4 4 4 4 4 3 4 5 6 5 5 5 4 3 3 2 0 0 1 2 3 3 4
1 1 1 1 2 2 1 1 2 1 2 5 5 4 5 5 0 0 0 2 4 4 4 3 3 3 1 2 2 1 1 1 1 0 1 1 1 1 0 0 1 1 1 2 3 3 3 3 3 5 4 5 4 5 4 3 3 4 4 7 6 7 6 5 4 4 4 4 5 5 6 6 7 5 3 3 2 4 4 3 1 1 2 1 1 1 3
1 1 1 0 2 1 2 3 2 5 5 6 7 5 5 5 4 2 2 2 4 3 2 3 2 1 1 1 2 3 2 0 1 2 2 1 0 1 1 1 1 1 1 2 4 3 4 2 6 5 6 5 5 4 1 1 1 1 3 7 7 7 6 6 5 5 5 5 5 6 5 5 5 3 5 5 4 4 4 4 4 2 1 1 1 2 2
1 1 1 1 1 1 3 3 7 8 8 8 6 5 4 5 5 7 2 2 4 4 4 4 1 2 1 1 2 1 2 1 1 1 1 1 1 2 1 2 1 2 2 3 5 5 6 5 7 7 7 5 4 4 3 2 1 1 0 1 4 7 6 6 6 5 5 4 4 4 4 4 4 4 3 4 4 4 4 4 4 3 1 0 1 1 2
1 1 2 2 2 3 4 5 5 7 5 5 6 5 1 2 2 3 4 2 2 2 3 2 3 2 1 1 1 1 2 1 1 1 2 3 2 1 2 5 3 3 3 2 4 4 0 4 5 4 3 6 5 5 2 2 4 4 3 3 4 5 6 6 7 6 5 5 4 4 4 4 4 4 6 3 6 5 4 2 3 4 3 1 1 2 3
1 2 3 3 5 4 2 3 3 4 6 6 6 5 4 2 1 1 1 1 1 2 2 1 1 1 1 0 1 1 2 1 2 4 3 3 1 2 4 5 3 4 6 6 6 5 2 4 6 4 5 6 5 5 4 3 2 3 4 5 4 4 4 6 6 6 5 5 4 5 5 5 5 4 4 3 6 5 5 4 2 3 4 3 1 2 4
2 3 4 3 6 7 7 7 6 7 8 8 8 6 3 5 2 1 2 1 3 2 2 1 1 1 1 3 2 2 1 0 2 1 3 3 2 3 3 4 4 4 5 4 5 6 6 5 3 8 7 6 5 5 4 2 0 2 4 3 4 5 4 4 5 5 6 6 6 6 5 6 6 3 2 4 4 4 5 5 4 4 4 4 3 3 3
Wind_Direction
358 356 355 353 350 348 345 344 343 350 350 2 346 317 312 281 262 307 306 94 119 105 208 236 215 216 234 249 248 254 269 277 271 267 318 268 259 246 209 269 272 263 247 269 279 296 254 180 233 178 97 112 140 7 4 14 42 58 23 56 335 24 73 26 299 299 308 322 323 314 312 313 316 318 48 43 311 232 184 186 196 155 280 32 94 154 261
358 357 356 354 351 349 347 344 343 345 5 336 304 306 287 296 286 301 284 173 103 124 196 249 256 254 244 235 259 263 275 277 279 270 314 279 273 300 317 260 287 350 349 335 316 74 12 137 258 312 145 112 111 87 42 55 37 42 307 101 260 69 298 128 272 354 340 334 325 342 347 36 18 341 28 81 40 45 77 18 20 61 228 133 103 257 239
358 357 357 355 353 351 348 346 344 341 348 359 307 290 294 283 249 228 260 244 118 192 172 208 255 271 267 267 276 304 270 272 285 279 256 347 339 350 329 352 12 317 2 335 337 155 152 326 323 301 102 132 138 114 138 98 91 49 51 56 89 101 214 81 115 176 209 293 68 351 338 345 319 351 350 15 18 42 38 35 357 68 314 62 106 50 258
359 358 358 356 354 352 350 348 346 344 337 349 18 269 298 333 346 307 351 0 341 292 308 266 239 278 288 323 279 277 299 311 317 326 311 346 354 335 310 299 12 342 2 352 345 332 349 165 340 7 52 203 143 142 91 83 97 107 56 52 62 96 17 119 154 163 202 218 244 296 0 340 347 316 323 319 355 25 83 118 111 205 212 337 216 153 191
0 360 358 357 356 354 353 351 349 345 341 342 5 286 204 291 24 13 338 323 337 360 324 359 330 267 319 314 322 273 255 276 292 341 24 18 19 347 305 21 9 343 7 4 343 349 340 353 26 14 13 350 66 87 100 93 99 93 81 100 77 71 16 307 3 292 248 297 308 318 326 299 301 329 309 331 335 43 13 17 265 146 64 335 284 102 100
1 1 360 358 357 356 355 354 352 349 343 339 338 40 12 8 350 34 26 265 310 350 359 360 327 332 349 1 1 351 358 2 357 272 103 26 32 14 348 356 13 340 323 344 302 337 309 35 19 358 35 357 353 53 85 94 86 73 24 90 116 137 147 263 233 282 289 290 286 288 290 287 288 281 292 297 312 352 317 247 231 246 209 211 218 77 291
3 2 1 359 358 357 357 356 355 353 344 339 53 32 6 11 314 327 360 6 318 288 296 322 302 326 346 29 3 351 23 354 339 13 334 26 23 22 16 360 16 11 30 47 37 9 44 336 2 39 342 19 335 29 47 81 116 94 87 3 133 83 224 260 285 295 329 332 337 330 315 313 322 320 325 314 329 338 12 341 328 88 224 221 229 255 254
5 3 2 360 359 359 359 358 359 356 345 335 51 49 4 10 352 331 336 315 301 316 328 304 311 47 9 29 358 317 147 344 2 0 16 88 16 28 46 13 6 26 44 44 51 20 23 47 47 348 23 344 29 14 92 222 349 88 154 146 4 102 285 105 44 49 350 341 325 316 313 316 308 311 319 325 358 9 21 54 359 345 2 14 62 69 29
6 4 3 1 360 360 0 1 2 0 350 23 11 41 24 309 324 319 308 324 319 327 320 11 41 44 7 22 351 358 7 356 4 63 28 35 14 73 55 29 4 44 39 34 19 2 353 340 2 332 19 354 314 18 297 13 356 1 359 43 356 85 235 74 80 50 316 294 306 320 355 4 351 344 335 6 22 16 348 55 299 75 360 18 43 39 7
6 6 4 2 1 0 1 2 4 5 357 27 343 21 350 337 306 328 297 290 298 304 5 32 45 26 318 337 2 13 25 24 41 32 2 22 27 31 50 35 52 41 35 18 349 343 331 330 313 314 314 312 315 315 320 344 358 37 352 72 101 141 112 76 80 29 246 265 355 349 5 5 1 339 335 352 326 150 105 68 49 58 94 53 45 120 277
7 6 4 3 2 1 1 1 3 7 9 18 353 352 10 4 330 328 340 348 319 1 41 32 22 19 349 18 14 4 29 24 39 51 348 9 19 6 56 46 57 61 45 335 320 330 320 303 299 301 300 295 295 300 311 315 308 287 264 47 325 105 130 202 148 168 227 86 34 25 26 342 247 292 21 8 318 80 78 52 52 50 74 161 124 117 36
6 6 5 3 2 1 1 1 2 5 10 356 321 307 19 333 316 315 340 24 353 10 37 41 13 7 2 3 16 7 4 26 27 56 38 20 12 350 15 54 60 43 338 308 345 328 309 294 283 269 245 241 250 262 269 272 286 298 265 218 189 204 141 221 148 123 229 28 38 33 267 228 200 37 23 16 28 38 94 82 60 47 39 49 44 44 46
7 4 2 2 2 1 1 1 1 1 4 357 354 334 359 355 349 347 334 11 17 19 16 21 11 6 356 351 358 22 349 345 34 66 64 41 5 354 349 57 49 344 328 0 342 329 335 327 319 303 310 307 302 275 245 235 237 245 269 237 160 156 148 174 211 145 56 72 107 158 225 266 54 70 33 357 36 12 44 31 27 22 23 55 64 64 54
4 4 3 1 0 359 359 1 1 360 360 2 350 334 342 7 15 356 14 21 351 21 10 22 10 358 345 1 354 7 12 9 4 8 55 54 345 356 332 64 77 351 24 349 313 301 328 347 329 11 321 324 296 290 257 269 246 224 220 231 231 185 172 122 245 112 161 172 157 210 314 338 4 2 7 22 54 3 69 127 37 9 17 36 45 34 36
3 2 0 360 0 359 357 359 1 0 359 357 341 334 343 13 16 352 304 320 337 327 32 33 347 342 339 15 2 12 13 5 3 349 356 123 328 20 3 62 55 2 335 355 331 334 226 280 333 9 294 96 84 255 276 242 222 227 220 206 194 179 193 199 132 261 135 150 193 346 19 270 287 244 15 7 19 36 351 90 36 3 357 3 40 40 30
2 1 360 359 359 359 356 355 359 1 3 356 352 344 319 9 347 325 299 253 287 30 1 16 358 355 1 9 356 16 358 11 1 340 1 12 17 324 49 2 142 89 329 298 255 274 316 69 282 37 243 283 277 342 282 342 305 47 17 37 85 23 194 158 151 174 85 100 143 193 187 230 178 311 351 343 345 359 332 67 37 335 341 359 26 30 29
1 0 359 358 358 358 356 354 355 359 2 4 346 334 313 8 8 348 329 321 46 84 0 17 6 5 10 359 353 9 357 4 14 25 352 358 355 355 357 338 332 29 5 4 321 15 5 171 238 211 287 294 305 333 333 355 354 351 14 7 31 51 25 24 57 104 136 151 150 227 127 104 353 332 338 329 331 2 64 345 279 335 329 348 11 12 22
360 359 358 358 357 357 356 353 353 358 0 359 356 327 303 347 4 351 344 357 25 47 10 12 6 27 11 355 11 351 355 6 12 352 4 351 16 358 336 342 353 10 353 330 325 352 327 343 358 334 287 316 343 52 27 348 0 345 10 4 8 13 358 57 42 24 240 168 226 108 61 11 1 326 314 337 330 59 93 221 309 299 314 356 6 358 7
358 358 357 356 356 356 355 353 351 356 0 2 351 341 313 324 350 19 352 4 19 47 348 21 18 47 11 15 17 356 23 23 14 22 353 346 359 332 316 31 24 351 0 350 345 5 1 331 8 5 14 347 32 94 309 24 334 334 11 11 17 10 56 332 66 31 43 39 85 167 118 249 264 296 352 352 2 45 67 243 224 256 308 355 338 343 339
358 357 356 355 354 355 354 353 350 352 357 0 1 295 283 295 11 38 24 1 338 349 9 9 27 40 27 32 10 9 359 32 16 39 25 334 311 336 357 7 352 7 4 14 23 348 58 360 0 8 11 351 300 214 13 279 357 343 51 54 69 359 67 303 21 309 59 76 73 23 349 272 179 281 3 20 79 212 172 239 284 278 342 337 324 0 11
357 356 355 355 354 354 354 351 349 350 353 358 359 331 329 349 358 7 27 43 313 340 337 325 55 56 33 59 39 23 40 52 33 8 350 307 309 323 59 13 357 357 25 357 1 353 357 350 342 358 357 15 322 64 332 333 346 346 55 39 73 358 72 343 50 34 99 26 44 93 211 245 272 41 112 300 134 208 235 339 338 18 19 10 10 8 3
355 355 355 354 354 354 353 351 347 348 351 355 356 335 323 325 336 342 320 223 185 194 275 280 345 97 120 70 68 78 88 72 77 74 19 340 329 37 72 28 27 8 19 4 22 355 9 326 328 20 355 321 353 21 339 33 343 321 352 52 53 347 93 218 118 316 95 58 187 225 214 178 114 116 240 78 330 34 48 50 49 32 2 356 9 347 348
352 353 353 353 353 353 352 350 347 347 349 355 0 11 307 316 333 340 340 2 206 295 276 256 266 154 233 75 132 136 110 146 128 92 58 61 334 19 57 27 7 331 12 54 61 296 265 356 293 328 341 355 16 327 333 2 302 20 32 38 123 11 38 2 69 339 63 139 90 55 65 56 19 30 73 50 36 51 36 38 29 13 359 1 355 350 351
349 349 350 351 351 352 351 349 349 349 350 351 355 323 318 308 303 352 349 349 42 354 336 6 54 332 330 26 341 68 124 131 102 145 161 128 76 351 17 62 328 359 8 331 331 330 292 288 253 354 9 316 33 33 20 340 53 0 3 6 73 23 19 57 102 298 64 287 19 37 18 10 15 29 27 36 40 38 40 38 38 350 347 349 345 360 350
344 345 346 347 348 349 350 349 349 350 349 353 349 305 282 291 9 15 8 6 338 31 11 321 2 8 36 358 355 57 41 23 136 164 127 188 107 95 61 248 298 80 324 314 354 23 8 346 339 8 23 339 53 346 29 51 326 16 10 305 30 349 29 52 26 25 75 271 39 27 0 342 23 43 27 13 4 2 1 14 20 344 357 9 353 350 342
339 340 342 342 344 344 347 349 347 348 349 349 350 329 331 307 356 360 348 350 274 171 191 291 220 237 265 53 9 275 234 163 70 8 348 142 127 138 169 312 347 176 191 358 56 46 351 356 337 326 31 345 48 43 353 183 231 320 32 266 303 11 15 89 308 40 306 351 25 6 23 19 10 1 10 3 349 340 344 1 6 6 5 355 340 351 321
335 336 337 337 338 340 343 347 346 345 346 347 339 316 311 312 32 24 27 345 358 8 14 353 344 17 355 17 24 314 53 17 80 71 3 4 53 148 110 327 331 299 79 19 347 261 335 267 329 315 59 224 59 272 279 349 22 347 316 292 346 46 37 19 37 35 10 34 348 24 23 326 337 349 347 339 342 4 5 6 359 352 345 328 332 332 337
334 332 332 332 332 335 338 341 344 342 343 340 330 311 303 346 45 27 15 21 43 105 281 289 321 317 341 303 347 255 161 184 52 275 73 22 322 79 151 209 213 242 146 102 0 12 340 343 282 202 135 345 36 329 355 302 304 291 22 2 36 65 47 57 71 80 283 322 6 36 33 292 276 312 330 346 14 13 356 341 324 320 327 344 1 349 336
337 334 332 331 330 331 333 337 341 341 337 332 304 302 290 49 51 53 24 349 23 313 282 257 262 270 276 288 295 327 20 67 154 163 82 329 302 28 330 280 268 220 120 105 151 183 191 247 188 54 160 220 116 283 22 333 322 57 92 89 69 69 75 81 88 69 265 21 344 342 356 331 315 331 345 335 354 360 332 333 345 3 353 352 349 331 326
333 333 332 330 329 329 330 334 339 339 336 315 305 284 237 338 331 30 12 353 329 311 343 1 340 260 220 245 311 341 354 49 34 43 86 339 2 319 275 299 38 88 115 198 153 271 217 285 270 275 129 176 120 193 60 270 315 108 320 56 39 42 64 97 97 98 252 270 291 344 355 326 311 320 319 327 342 351 5 6 356 349 349 347 337 330 324
327 327 327 329 329 327 326 331 338 340 339 326 302 296 30 42 277 27 4 331 328 16 304 212 246 280 325 185 227 59 283 330 29 312 124 206 266 270 319 46 338 269 35 357 47 285 246 300 338 300 129 347 97 137 202 335 307 75 57 74 59 46 58 81 65 17 354 27 20 5 346 325 330 351 341 352 355 22 20 3 358 4 358 350 338 343 353
322 321 324 328 327 324 322 323 330 338 324 342 42 63 217 249 274 322 314 293 295 313 302 316 306 351 179 294 264 188 211 64 271 222 12 133 346 6 33 78 280 351 130 144 184 86 255 228 241 284 109 217 106 173 91 267 257 230 128 87 62 61 49 54 47 29 20 46 25 15 347 317 350 6 340 3 23 21 26 3 8 19 346 335 358 18 13
319 317 320 325 324 319 317 315 320 323 282 282 267 264 270 274 298 306 296 316 332 224 236 280 243 252 245 251 199 15 350 321 272 128 219 244 173 187 210 199 238 232 48 70 24 202 224 190 195 276 219 129 113 188 160 211 217 131 56 42 43 52 37 42 30 36 40 12 41 356 289 311 353 3 36 2 10 37 22 12 8 3 13 20 14 11 8
315 315 315 318 318 315 312 310 309 300 276 259 311 197 205 216 289 289 301 264 254 261 201 224 288 329 273 49 60 292 308 332 289 0 12 240 222 141 241 0 185 153 329 132 231 26 307 177 235 179 81 296 211 93 246 244 82 62 58 37 47 42 35 26 40 35 12 342 337 313 351 5 343 18 47 31 35 28 17 29 25 14 27 27 18 16 3
312 312 312 310 310 306 302 299 320 317 273 253 191 154 145 172 216 268 289 299 10 328 340 263 244 303 334 320 105 260 263 290 309 36 265 257 152 131 97 48 328 107 263 54 346 182 218 219 183 23 265 141 94 212 258 52 63 58 57 42 44 35 11 17 348 8 348 342 331 33 28 1 359 43 33 51 45 37 30 29 27 23 26 23 20 18 4
311 308 308 307 303 295 294 268 186 257 250 268 279 168 173 244 244 229 219 253 198 151 289 268 342 307 311 313 7 279 11 312 294 274 226 225 325 44 160 152 312 301 148 131 218 284 270 97 77 245 249 260 233 154 171 150 86 78 74 61 61 65 340 301 316 8 355 333 348 65 42 4 12 51 37 54 54 45 35 35 30 33 33 23 17 2 351
308 305 305 301 288 165 236 230 191 142 247 235 277 306 289 260 218 198 210 236 222 183 221 306 326 277 3 292 254 273 38 6 316 318 348 22 277 243 222 38 224 214 23 276 229 233 242 201 134 224 166 226 219 163 127 104 96 86 74 79 83 52 21 339 28 46 12 340 352 40 34 354 11 37 23 58 60 54 35 32 30 22 22 23 5 350 333
306 305 305 271 212 255 219 39 76 251 282 291 293 307 35 110 222 243 161 220 192 156 242 206 241 255 272 240 287 232 103 284 11 329 319 61 353 293 166 162 229 69 274 259 254 286 142 163 188 189 253 167 148 134 118 109 121 121 105 99 129 135 305 16 60 61 9 334 358 12 20 2 22 21 46 53 52 47 49 37 29 39 38 34 2 325 321
303 281 246 240 225 356 0 304 248 270 256 254 186 342 270 161 185 241 202 187 86 251 223 178 234 233 213 226 294 145 117 147 334 313 319 250 110 291 32 26 331 80 290 11 304 63 349 295 268 231 282 141 119 132 116 102 92 90 89 61 102 109 84 33 80 104 269 267 43 90 86 20 333 8 78 99 90 59 26 29 30 40 34 34 328 314 317
351 341 336 318 28 1 290 282 246 287 286 325 218 123 266 205 164 259 179 202 206 203 127 222 223 218 178 154 120 311 44 125 269 284 350 310 96 149 219 287 283 79 273 259 243 108 142 276 323 319 320 119 135 141 91 101 85 71 74 18 48 74 86 105 279 190 123 82 65 91 151 191 232 130 87 102 108 77 20 357 42 53 353 255 251 280 310
3 334 328 349 325 318 308 326 318 274 220 259 312 286 29 296 232 236 301 256 208 252 178 185 169 252 49 20 136 234 294 75 211 183 99 268 252 42 32 254 73 302 264 271 242 166 112 269 266 238 197 188 145 139 107 92 89 93 74 91 105 104 90 309 276 98 66 94 130 157 199 115 53 56 56 90 123 154 185 226 251 215 235 253 264 267 264
326 260 269 286 282 275 290 284 197 252 239 227 101 261 211 222 256 284 168 220 240 200 30 44 340 48 147 173 207 93 240 148 147 168 113 298 266 133 242 253 240 176 262 245 317 279 198 248 237 264 197 171 141 124 114 112 113 111 195 119 114 92 6 307 344 109 131 138 162 145 116 114 134 143 115 314 236 178 192 212 236 240 248 252 251 262 267
289 271 237 250 283 268 198 252 206 161 138 315 71 322 235 261 203 212 250 216 164 143 198 183 169 135 93 39 351 152 183 160 146 25 81 259 329 94 216 235 96 254 241 278 266 297 263 269 262 255 147 169 155 133 131 138 148 160 174 120 103 102 47 39 30 105 125 155 168 152 144 145 127 146 233 238 248 208 189 200 212 233 247 262 274 276 277
270 257 268 196 287 270 179 289 277 54 337 176 162 225 230 248 272 227 280 290 37 271 143 158 185 119 252 197 132 326 26 9 32 35 296 266 238 243 202 240 213 248 193 254 220 242 235 233 228 209 151 151 128 135 142 142 165 178 126 110 112 91 84 101 120 134 157 150 104 102 131 149 176 225 243 256 285 296 173 202 217 224 240 263 309 338 342
328 311 219 231 226 281 51 315 290 134 230 215 198 242 233 250 275 241 180 237 147 243 29 66 55 61 27 155 175 211 114 213 44 92 249 77 314 327 293 252 267 352 256 269 271 285 297 271 301 68 153 144 138 142 163 178 189 153 139 137 131 123 125 156 211 194 157 147 149 133 51 296 232 213 233 247 256 164 99 80 22 12 344 20 13 4 347
315 320 320 353 326 296 179 273 307 281 244 212 236 228 250 261 275 334 160 186 81 27 36 27 31 37 340 322 128 213 76 138 139 213 222 176 204 252 219 255 334 292 288 289 257 241 222 247 271 155 163 143 154 172 199 206 181 149 148 151 161 158 165 186 203 182 174 162 163 151 196 235 245 220 214 238 240 143 125 136 150 291 14 57 29 13 342
284 286 274 315 278 254 170 244 252 241 304 300 290 290 277 273 174 196 212 95 69 81 66 72 71 102 60 316 350 320 178 141 215 263 59 309 228 302 65 175 255 209 243 253 246 257 270 266 178 193 173 162 174 212 221 196 147 162 154 145 153 158 158 185 215 198 178 183 181 190 206 225 238 244 184 162 180 157 163 152 131 64 96 95 77 58 5
304 300 313 302 272 261 242 243 272 286 285 282 298 307 318 327 351 349 59 106 116 94 87 72 10 22 307 311 123 233 282 236 229 247 159 248 315 256 292 249 237 218 192 228 243 249 257 202 181 193 186 187 189 198 229 163 166 192 143 153 159 161 164 177 201 217 189 195 207 209 215 226 246 235 173 187 183 150 144 142 135 109 44 66 68 70 50
262 302 289 280 272 292 291 335 333 301 295 285 281 297 332 19 6 345 353 70 84 86 94 97 107 78 266 266 267 262 265 152 240 248 161 174 155 216 172 242 201 262 255 202 240 237 241 193 192 188 184 182 177 194 200 155 114 72 91 145 158 163 165 176 195 210 203 204 213 216 226 237 250 267 242 200 147 151 158 158 143 141 143 95 104 83 55
296 253 218 229 275 268 252 274 269 275 286 316 343 324 6 47 5 337 341 26 54 82 60 71 89 108 253 46 285 266 261 208 245 272 228 224 204 204 215 250 221 213 249 261 260 280 340 168 189 185 171 183 202 173 170 181 183 188 201 180 159 160 174 181 193 197 193 206 222 234 239 240 237 250 266 228 151 159 136 124 136 144 148 176 97 112 100
212 238 250 223 231 258 332 285 284 301 306 298 301 298 311 305 204 249 23 39 44 66 99 180 204 163 123 227 233 250 237 142 227 231 221 238 217 235 226 240 225 209 233 234 246 263 252 176 184 190 183 186 187 171 173 187 191 215 217 203 180 174 180 177 178 179 187 194 214 236 248 252 247 243 256 164 142 142 139 152 168 165 149 140 135 107 108
223 231 240 230 230 251 255 266 272 261 267 277 282 284 314 295 329 312 144 119 119 135 230 194 150 216 200 218 225 263 317 311 240 230 253 235 200 234 243 226 248 242 242 258 279 287 287 276 198 166 182 186 181 177 156 130 130 297 295 270 163 169 175 181 181 181 183 191 202 214 229 248 260 257 253 169 173 160 150 175 203 172 158 142 152 161 159